Location: Unspecified
(51.5147°N, 7.4673°E)
Time: 08:37:25
(UTC+01:00)

A-11 Canister half - All Passes

Search period start: 16 February 2026 00:00
Search period end: 26 February 2026 00:00
Orbit: 1512 x 1687 km, 47.2° (Epoch: 15 February)

Date Brightness Start Highest point End Pass type
(mag) Time Alt. Az. Time Alt. Az. Time Alt. Az.
16 Feb - 00:42:43 10° WSW 00:52:40 70° S 01:02:16 10° E night (unlit)
16 Feb - 02:47:31 10° W 02:57:04 56° SSW 03:06:16 10° SE visible
16 Feb - 04:52:54 10° W 05:00:29 27° SW 05:07:52 10° S visible
16 Feb - 20:14:51 10° S 20:21:59 22° SE 20:29:01 10° E visible
16 Feb - 22:15:41 10° SW 22:25:17 51° SSE 22:34:39 10° E visible
17 Feb - 00:19:39 10° WSW 00:29:37 70° S 00:39:15 10° E night (unlit)
17 Feb - 02:24:26 10° W 02:34:04 58° SSW 02:43:19 10° SE visible
17 Feb - 04:29:44 10° W 04:37:33 28° SW 04:45:08 10° S visible
17 Feb - 19:52:12 10° S 19:59:03 21° SE 20:05:49 10° E visible
17 Feb - 21:52:42 10° SW 22:02:16 49° SSE 22:11:36 10° E visible
17 Feb - 23:56:35 10° WSW 00:06:34 70° S 00:16:13 10° E visible
18 Feb - 02:01:22 10° W 02:11:03 59° SSW 02:20:22 10° SE visible
18 Feb - 04:06:35 10° W 04:14:37 30° SW 04:22:23 10° SSE visible
18 Feb - 19:29:33 10° S 19:36:06 20° SE 19:42:34 10° E visible
18 Feb - 21:29:45 10° SW 21:39:15 47° SSE 21:48:33 10° E visible
18 Feb - 23:33:31 10° WSW 23:43:31 69° S 23:53:13 10° E visible
19 Feb - 01:38:16 10° W 01:48:01 61° SSW 01:57:24 10° ESE visible
19 Feb - 03:43:27 10° W 03:51:40 32° SW 03:59:37 10° SSE visible
19 Feb - 19:06:59 10° SSE 19:13:10 18° SE 19:19:19 10° E visible
19 Feb - 21:06:48 10° SW 21:16:14 46° SSE 21:25:30 10° E visible
19 Feb - 23:10:27 10° WSW 23:20:28 69° S 23:30:11 10° E visible
20 Feb - 01:15:11 10° W 01:25:00 62° SSW 01:34:26 10° ESE night (unlit)
20 Feb - 03:20:19 10° W 03:28:42 33° SW 03:36:50 10° SSE visible
20 Feb - 18:44:26 10° SSE 18:50:14 17° SE 18:56:00 10° E visible
20 Feb - 20:43:51 10° SW 20:53:14 44° SSE 21:02:27 10° E visible
20 Feb - 22:47:23 10° WSW 22:57:25 68° S 23:07:09 10° E visible
21 Feb - 00:52:06 10° W 01:01:58 63° SSW 01:11:27 10° ESE visible
21 Feb - 02:57:11 10° W 03:05:45 35° SW 03:14:02 10° SSE visible
21 Feb - 18:21:58 10° SSE 18:27:19 16° SE 18:32:38 10° E visible
21 Feb - 20:20:56 10° SSW 20:30:13 43° SSE 20:39:23 10° E visible
21 Feb - 22:24:20 10° WSW 22:34:21 67° S 22:44:07 10° E visible
22 Feb - 00:29:01 10° W 00:38:55 64° SSW 00:48:29 10° ESE visible
22 Feb - 02:34:04 10° W 02:42:47 37° SW 02:51:13 10° SSE night (unlit)
22 Feb - 04:42:50 10° WSW 04:45:15 11° WSW 04:47:41 10° SW visible
22 Feb - 17:59:34 10° SSE 18:04:24 15° SE 18:09:13 10° E daylight
22 Feb - 19:58:00 10° SSW 20:07:13 41° SE 20:16:19 10° E visible
22 Feb - 22:01:17 10° WSW 22:11:19 67° SSE 22:21:06 10° E visible
23 Feb - 00:05:57 10° W 00:15:53 66° SSW 00:25:29 10° ESE visible
23 Feb - 02:10:57 10° W 02:19:49 38° SW 02:28:23 10° SSE night (unlit)
23 Feb - 04:18:55 10° WSW 04:22:22 12° WSW 04:25:48 10° SW night (unlit)
23 Feb - 17:37:16 10° SSE 17:41:29 13° ESE 17:45:41 10° E daylight
23 Feb - 19:35:07 10° SSW 19:44:13 39° SE 19:53:14 10° E visible
23 Feb - 21:38:14 10° WSW 21:48:16 66° SSE 21:58:04 10° E visible
23 Feb - 23:42:51 10° W 23:52:51 66° SSW 00:02:29 10° ESE visible
24 Feb - 01:47:50 10° W 01:56:50 40° SW 02:05:32 10° SSE night (unlit)
24 Feb - 03:55:15 10° W 03:59:29 14° SW 04:03:39 10° SSW night (unlit)
24 Feb - 17:15:08 10° SE 17:18:35 12° ESE 17:22:01 10° ESE daylight
24 Feb - 19:12:14 10° SSW 19:21:14 38° SE 19:30:09 10° E visible
24 Feb - 21:15:12 10° WSW 21:25:12 65° SSE 21:35:01 10° E visible
24 Feb - 23:19:47 10° W 23:29:48 67° S 23:39:29 10° ESE visible
25 Feb - 01:24:44 10° W 01:33:51 42° SW 01:42:41 10° SSE visible
25 Feb - 03:31:45 10° W 03:36:36 15° SW 03:41:22 10° SSW night (unlit)
25 Feb - 16:53:19 10° SE 16:55:41 11° ESE 16:58:02 10° ESE daylight
25 Feb - 18:49:21 10° SSW 18:58:14 36° SE 19:07:03 10° E visible
25 Feb - 20:52:09 10° WSW 21:02:09 64° SSE 21:11:58 10° E visible
25 Feb - 22:56:43 10° W 23:06:45 68° S 23:16:29 10° ESE visible
